| time (UTC) | temp C | wind direction | speed KPH | gust KPH | rain 1hr cm | rain 24hr cm | rain mn cm | humidity % | barometer mb |
| 20260509042905 | 17 | 284 | 19.3 | 27.4 | 0.00 | 1.47 | 0.79 | 82 | 1003.1 |
| 20260509042405 | 17 | 274 | 11.3 | 14.5 | 0.00 | 1.47 | 0.79 | 82 | 1003.0 |
| 20260509041904 | 17 | 279 | 11.3 | 19.3 | 0.00 | 1.47 | 0.79 | 81 | 1003.0 |
| 20260509035906 | 17 | 280 | 19.3 | 27.4 | 0.00 | 1.47 | 0.79 | 79 | 1003.2 |
| 20260509033905 | 18 | 289 | 19.3 | 27.4 | 0.00 | 1.47 | 0.79 | 76 | 1002.9 |
| 20260509032405 | 19 | 264 | 16.1 | 24.1 | 0.00 | 1.47 | 0.79 | 72 | 1002.9 |
| 20260509031905 | 19 | 276 | 14.5 | 20.9 | 0.00 | 1.47 | 0.79 | 74 | 1003.0 |
| 20260509031404 | 18 | 273 | 19.3 | 24.1 | 0.00 | 1.47 | 0.79 | 74 | 1003.0 |
| 20260509025404 | 18 | 279 | 22.5 | 32.2 | 0.00 | 1.47 | 0.79 | 72 | 1003.0 |
| 20260509024905 | 19 | 287 | 29.0 | 33.8 | 0.00 | 1.47 | 0.79 | 74 | 1003.0 |
| 20260509024405 | 19 | 288 | 22.5 | 33.8 | 0.00 | 1.47 | 0.79 | 74 | 1003.0 |
| 20260509023405 | 18 | 288 | 22.5 | 32.2 | 0.00 | 1.47 | 0.79 | 75 | 1003.0 |
| 20260509022905 | 18 | 293 | 27.4 | 32.2 | 0.00 | 1.47 | 0.79 | 73 | 1002.9 |
| 20260509021404 | 19 | 272 | 19.3 | 27.4 | 0.00 | 1.47 | 0.79 | 75 | 1002.9 |
| 20260509020405 | 20 | 285 | 19.3 | 24.1 | 0.00 | 1.47 | 0.79 | 75 | 1003.1 |
| 20260509015405 | 20 | 279 | 19.3 | 25.7 | 0.00 | 1.47 | 0.79 | 76 | 1003.1 |
| 20260509014905 | 20 | 299 | 17.7 | 25.7 | 0.00 | 1.47 | 0.79 | 76 | 1003.0 |
| 20260509014405 | 20 | 288 | 25.7 | 32.2 | 0.00 | 1.47 | 0.79 | 75 | 1003.0 |
| 20260509013905 | 20 | 289 | 25.7 | 32.2 | 0.00 | 1.47 | 0.79 | 75 | 1003.0 |
| 20260509013405 | 20 | 300 | 20.9 | 29.0 | 0.00 | 1.47 | 0.79 | 75 | 1003.0 |
| 20260509012405 | 19 | 291 | 20.9 | 32.2 | 0.00 | 1.47 | 0.79 | 77 | 1003.2 |
| 20260509010905 | 18 | 280 | 24.1 | 32.2 | 0.00 | 1.47 | 0.79 | 76 | 1003.4 |
| 20260509010405 | 18 | 293 | 29.0 | 33.8 | 0.00 | 1.47 | 0.79 | 77 | 1003.5 |
| 20260509004405 | 18 | 293 | 16.1 | 24.1 | 0.00 | 1.47 | 0.79 | 79 | 1003.8 |
| 20260509003405 | 19 | 291 | 22.5 | 32.2 | 0.00 | 1.47 | 0.79 | 77 | 1004.0 |
| 20260509002904 | 19 | 300 | 22.5 | 37.0 | 0.00 | 1.47 | 0.79 | 77 | 1004.1 |
| 20260509001405 | 19 | 288 | 29.0 | 38.6 | 0.03 | 1.47 | 0.79 | 79 | 1004.5 |
| 20260508235406 | 18 | 296 | 20.9 | 32.2 | 0.28 | 1.47 | 0.79 | 87 | 1005.0 |
| 20260508234905 | 17 | 280 | 20.9 | 32.2 | 0.28 | 1.47 | 0.79 | 86 | 1005.0 |
| 20260508233905 | 17 | 281 | 22.5 | 27.4 | 0.28 | 1.47 | 0.79 | 87 | 1005.1 |
| 20260508232905 | 17 | 296 | 25.7 | 32.2 | 0.28 | 1.47 | 0.79 | 87 | 1005.1 |
| 20260508231905 | 16 | 282 | 19.3 | 24.1 | 0.28 | 1.47 | 0.79 | 88 | 1005.3 |
| 20260508231404 | 17 | 275 | 22.5 | 33.8 | 0.25 | 1.45 | 0.79 | 83 | 1005.4 |
| 20260508225904 | 19 | 297 | 17.7 | 25.7 | 0.00 | 1.19 | 0.51 | 84 | 1005.1 |
| 20260508224405 | 18 | 318 | 19.3 | 24.1 | 0.00 | 1.19 | 0.51 | 84 | 1005.4 |
| 20260508223905 | 18 | 315 | 19.3 | 22.5 | 0.00 | 1.19 | 0.51 | 85 | 1005.4 |
| 20260508223404 | 18 | 308 | 19.3 | 25.7 | 0.00 | 1.19 | 0.51 | 85 | 1005.6 |
| 20260508222904 | 18 | 315 | 22.5 | 27.4 | 0.00 | 1.19 | 0.51 | 85 | 1005.5 |
| 20260508221405 | 18 | 307 | 22.5 | 29.0 | 0.00 | 1.19 | 0.51 | 86 | 1005.7 |
| 20260508220905 | 18 | 287 | 22.5 | 29.0 | 0.00 | 1.19 | 0.51 | 85 | 1005.7 |
| 20260508214904 | 17 | 318 | 20.9 | 27.4 | 0.03 | 1.19 | 0.51 | 89 | 1005.9 |
| 20260508213405 | 17 | 324 | 16.1 | 20.9 | 0.05 | 1.19 | 0.51 | 90 | 1005.9 |
| 20260508212904 | 17 | 324 | 14.5 | 20.9 | 0.05 | 1.19 | 0.51 | 91 | 1005.9 |
| 20260508212405 | 17 | 331 | 19.3 | 22.5 | 0.05 | 1.19 | 0.51 | 91 | 1005.9 |
| 20260508211404 | 17 | 320 | 16.1 | 22.5 | 0.05 | 1.19 | 0.51 | 92 | 1006.0 |
| 20260508210405 | 16 | 332 | 16.1 | 20.9 | 0.05 | 1.19 | 0.51 | 93 | 1005.9 |
| 20260508205404 | 16 | 324 | 16.1 | 20.9 | 0.05 | 1.19 | 0.51 | 93 | 1005.9 |
| 20260508204906 | 16 | 333 | 16.1 | 22.5 | 0.03 | 1.17 | 0.51 | 93 | 1005.9 |
| 20260508201904 | 15 | 337 | 14.5 | 19.3 | 0.00 | 1.17 | 0.48 | 94 | 1005.6 |
| 20260508200404 | 15 | 352 | 14.5 | 19.3 | 0.00 | 1.17 | 0.48 | 94 | 1005.6 |
| 20260508195905 | 14 | 348 | 12.9 | 19.3 | 0.00 | 1.17 | 0.48 | 94 | 1005.5 |
| 20260508195405 | 14 | 338 | 9.7 | 12.9 | 0.00 | 1.17 | 0.48 | 94 | 1005.6 |
| 20260508192406 | 14 | 339 | 11.3 | 16.1 | 0.00 | 1.17 | 0.48 | 94 | 1005.3 |
| 20260508191406 | 14 | 332 | 11.3 | 16.1 | 0.00 | 1.17 | 0.48 | 94 | 1005.3 |
| 20260508190906 | 14 | 334 | 12.9 | 16.1 | 0.00 | 1.17 | 0.48 | 94 | 1005.2 |
| 20260508190405 | 13 | 330 | 14.5 | 19.3 | 0.00 | 1.17 | 0.48 | 94 | 1005.1 |
| 20260508184909 | 13 | 337 | 9.7 | 14.5 | 0.00 | 1.17 | 0.48 | 93 | 1005.0 |
| 20260508184406 | 13 | 335 | 9.7 | 14.5 | 0.00 | 1.17 | 0.48 | 93 | 1005.0 |
| 20260508183905 | 14 | 329 | 11.3 | 14.5 | 0.00 | 1.17 | 0.48 | 93 | 1005.1 |
| 20260508181405 | 15 | 321 | 12.9 | 19.3 | 0.00 | 1.17 | 0.48 | 94 | 1005.1 |
| 20260508175905 | 14 | 338 | 9.7 | 14.5 | 0.00 | 1.17 | 0.48 | 94 | 1005.1 |
| 20260508175405 | 14 | 323 | 11.3 | 16.1 | 0.00 | 1.17 | 0.48 | 94 | 1005.1 |
| 20260508174906 | 14 | 328 | 14.5 | 19.3 | 0.00 | 1.17 | 0.48 | 94 | 1005.1 |
| 20260508170405 | 14 | 326 | 16.1 | 19.3 | 0.00 | 1.17 | 0.48 | 93 | 1005.0 |
| 20260508165405 | 15 | 332 | 19.3 | 24.1 | 0.00 | 1.17 | 0.48 | 93 | 1005.0 |
| 20260508164905 | 15 | 329 | 16.1 | 19.3 | 0.00 | 1.17 | 0.48 | 93 | 1005.0 |
| 20260508163906 | 15 | 346 | 16.1 | 19.3 | 0.00 | 1.17 | 0.48 | 93 | 1005.1 |
| 20260508163405 | 15 | 349 | 16.1 | 20.9 | 0.00 | 1.17 | 0.48 | 93 | 1005.2 |
| 20260508162406 | 15 | 355 | 8.0 | 16.1 | 0.00 | 1.17 | 0.48 | 93 | 1005.3 |
| 20260508161905 | 15 | 7 | 11.3 | 16.1 | 0.00 | 1.17 | 0.48 | 93 | 1005.5 |
| 20260508161406 | 15 | 8 | 11.3 | 19.3 | 0.00 | 1.17 | 0.48 | 93 | 1005.4 |
| 20260508160405 | 15 | 15 | 14.5 | 20.9 | 0.00 | 1.17 | 0.48 | 93 | 1005.5 |
| 20260508153905 | 15 | 14 | 8.0 | 12.9 | 0.00 | 1.17 | 0.48 | 93 | 1005.5 |
| 20260508153405 | 15 | 14 | 9.7 | 14.5 | 0.00 | 1.17 | 0.48 | 93 | 1005.7 |
| 20260508152905 | 15 | 12 | 8.0 | 11.3 | 0.00 | 1.17 | 0.48 | 93 | 1005.7 |
| 20260508152406 | 15 | 8 | 9.7 | 16.1 | 0.00 | 1.17 | 0.48 | 93 | 1005.8 |
| 20260508151406 | 15 | 338 | 9.7 | 19.3 | 0.00 | 1.17 | 0.48 | 93 | 1005.9 |
| 20260508145906 | 15 | 330 | 8.0 | 11.3 | 0.00 | 1.17 | 0.48 | 93 | 1005.8 |
| 20260508144406 | 15 | 327 | 6.4 | 8.0 | 0.08 | 1.17 | 0.48 | 93 | 1005.9 |
| 20260508143906 | 15 | 338 | 4.8 | 8.0 | 0.08 | 1.17 | 0.48 | 93 | 1005.9 |
| 20260508143406 | 15 | 343 | 3.2 | 4.8 | 0.10 | 1.17 | 0.48 | 92 | 1005.8 |
| 20260508135406 | 15 | 346 | 3.2 | 4.8 | 0.13 | 1.17 | 0.48 | 92 | 1006.2 |
| 20260508134905 | 15 | 346 | 3.2 | 11.3 | 0.08 | 1.12 | 0.43 | 91 | 1006.2 |
| 20260508134406 | 15 | 342 | 3.2 | 8.0 | 0.05 | 1.09 | 0.41 | 91 | 1006.1 |
| 20260508133905 | 15 | 327 | 4.8 | 9.7 | 0.05 | 1.09 | 0.41 | 91 | 1006.1 |
| 20260508131906 | 15 | 302 | 1.6 | 3.2 | 0.05 | 1.07 | 0.38 | 90 | 1006.6 |
| 20260508130906 | 16 | 293 | 4.8 | 11.3 | 0.33 | 1.04 | 0.36 | 89 | 1006.5 |
| 20260508125406 | 16 | 288 | 16.1 | 22.5 | 0.41 | 1.04 | 0.36 | 89 | 1006.5 |
| 20260508123906 | 16 | 287 | 20.9 | 32.2 | 0.71 | 1.04 | 0.36 | 89 | 1006.4 |
| 20260508122906 | 16 | 278 | 22.5 | 35.4 | 0.05 | 1.04 | 0.36 | 91 | 1006.2 |
| 20260508122406 | 16 | 285 | 27.4 | 45.1 | 0.03 | 1.02 | 0.33 | 92 | 1006.2 |
| 20260508121405 | 17 | 290 | 41.8 | 53.1 | 0.66 | 0.99 | 0.30 | 92 | 1006.2 |
| 20260508120906 | 18 | 338 | 24.1 | 33.8 | 0.41 | 0.71 | 0.05 | 92 | 1005.2 |
| 20260508114905 | 18 | 10 | 16.1 | 22.5 | 0.36 | 0.61 | 0.61 | 92 | 1005.6 |
| 20260508113406 | 18 | 359 | 22.5 | 32.2 | 0.08 | 0.33 | 0.33 | 91 | 1006.0 |
| 20260508112906 | 18 | 0 | 25.7 | 35.4 | 0.08 | 0.33 | 0.33 | 91 | 1005.9 |
| 20260508112406 | 18 | 3 | 22.5 | 33.8 | 0.08 | 0.33 | 0.33 | 91 | 1006.0 |
| 20260508111906 | 18 | 5 | 29.0 | 41.8 | 0.08 | 0.33 | 0.33 | 90 | 1006.1 |
| 20260508110906 | 18 | 2 | 25.7 | 38.6 | 0.08 | 0.33 | 0.33 | 91 | 1006.3 |
| 20260508110405 | 18 | 1 | 29.0 | 35.4 | 0.10 | 0.33 | 0.33 | 91 | 1006.3 |
| 20260508104906 | 18 | 356 | 27.4 | 40.2 | 0.08 | 0.23 | 0.23 | 90 | 1006.8 |
| 20260508104406 | 18 | 358 | 29.0 | 38.6 | 0.10 | 0.23 | 0.23 | 91 | 1006.8 |
| 20260508103906 | 18 | 7 | 27.4 | 41.8 | 0.13 | 0.23 | 0.23 | 91 | 1006.8 |
| 20260508103406 | 18 | 14 | 25.7 | 35.4 | 0.15 | 0.23 | 0.23 | 91 | 1006.9 |
| 20260508101905 | 18 | 359 | 19.3 | 27.4 | 0.23 | 0.23 | 0.23 | 91 | 1007.4 |
| 20260508095905 | 18 | 10 | 25.7 | 38.6 | 0.15 | 0.18 | 0.18 | 90 | 1007.5 |
| 20260508094906 | 18 | 21 | 22.5 | 32.2 | 0.15 | 0.15 | 0.15 | 90 | 1007.6 |
| 20260508094405 | 17 | 18 | 22.5 | 33.8 | 0.15 | 0.15 | 0.15 | 90 | 1007.7 |
| 20260508093405 | 18 | 12 | 20.9 | 32.2 | 0.08 | 0.08 | 0.08 | 89 | 1008.0 |
| 20260508092406 | 18 | 15 | 22.5 | 35.4 | 0.03 | 0.03 | 0.03 | 88 | 1008.1 |
| 20260508091405 | 18 | 6 | 25.7 | 32.2 | 0.03 | 0.03 | 0.03 | 87 | 1008.2 |
| 20260508090405 | 18 | 356 | 22.5 | 33.8 | 0.03 | 0.03 | 0.03 | 87 | 1008.4 |
| 20260508085905 | 18 | 3 | 25.7 | 32.2 | 0.03 | 0.03 | 0.03 | 86 | 1008.3 |
| 20260508084904 | 18 | 9 | 25.7 | 37.0 | 0.00 | 0.00 | 0.00 | 86 | 1008.3 |
| 20260508083905 | 18 | 352 | 29.0 | 38.6 | 0.00 | 0.00 | 0.00 | 86 | 1008.4 |
| 20260508082906 | 18 | 8 | 27.4 | 40.2 | 0.00 | 0.00 | 0.00 | 86 | 1008.2 |
| 20260508082405 | 18 | 3 | 24.1 | 37.0 | 0.00 | 0.00 | 0.00 | 87 | 1008.3 |
| 20260508081406 | 18 | 0 | 22.5 | 37.0 | 0.00 | 0.00 | 0.00 | 87 | 1008.6 |
| 20260508080406 | 18 | 0 | 25.7 | 35.4 | 0.00 | 0.00 | 0.00 | 86 | 1008.7 |
| 20260508074905 | 18 | 4 | 25.7 | 41.8 | 0.00 | 0.00 | 0.00 | 84 | 1008.6 |
| 20260508074405 | 18 | 10 | 22.5 | 33.8 | 0.00 | 0.00 | 0.00 | 84 | 1008.7 |
| 20260508073906 | 18 | 357 | 24.1 | 37.0 | 0.00 | 0.00 | 0.00 | 84 | 1008.8 |
| 20260508070404 | 18 | 8 | 22.5 | 32.2 | 0.00 | 0.00 | 0.00 | 86 | 1008.5 |
| 20260508065905 | 18 | 19 | 25.7 | 33.8 | 0.00 | 0.00 | 0.00 | 86 | 1008.5 |
| 20260508065405 | 18 | 22 | 29.0 | 38.6 | 0.00 | 0.00 | 0.00 | 87 | 1008.4 |
| 20260508064905 | 18 | 19 | 32.2 | 40.2 | 0.00 | 0.00 | 0.00 | 86 | 1008.7 |
| 20260508064404 | 18 | 17 | 32.2 | 45.1 | 0.00 | 0.00 | 0.00 | 87 | 1008.8 |
| 20260508063906 | 18 | 25 | 25.7 | 35.4 | 0.00 | 0.00 | 0.00 | 87 | 1008.8 |
| 20260508061405 | 18 | 7 | 25.7 | 41.8 | 0.00 | 0.00 | 0.00 | 87 | 1009.4 |
| 20260508060904 | 18 | 5 | 27.4 | 41.8 | 0.00 | 0.00 | 0.00 | 88 | 1009.5 |
| 20260508060406 | 18 | 1 | 27.4 | 37.0 | 0.00 | 0.00 | 0.00 | 88 | 1009.8 |
| 20260508055905 | 18 | 7 | 25.7 | 35.4 | 0.00 | 0.00 | 0.00 | 88 | 1010.1 |
| 20260508055405 | 18 | 6 | 25.7 | 35.4 | 0.00 | 0.00 | 0.00 | 88 | 1010.2 |
| 20260508053905 | 18 | 356 | 25.7 | 33.8 | 0.00 | 0.00 | 0.00 | 88 | 1010.4 |
| 20260508052906 | 18 | 8 | 25.7 | 46.7 | 0.00 | 0.00 | 0.00 | 88 | 1010.5 |
| 20260508051905 | 18 | 0 | 27.4 | 40.2 | 0.00 | 0.00 | 0.00 | 87 | 1010.7 |
| 20260508051405 | 18 | 356 | 29.0 | 41.8 | 0.00 | 0.00 | 0.00 | 86 | 1010.9 |
| 20260508050905 | 18 | 1 | 25.7 | 35.4 | 0.00 | 0.00 | 0.00 | 84 | 1010.9 |
| 20260508050405 | 18 | 354 | 29.0 | 38.6 | 0.00 | 0.00 | 0.00 | 84 | 1010.9 |
| 20260508045905 | 18 | 0 | 22.5 | 33.8 | 0.00 | 0.00 | 0.00 | 84 | 1010.9 |
| 20260508043906 | 18 | 9 | 22.5 | 32.2 | 0.00 | 0.00 | 0.00 | 83 | 1011.2 |